Year,Month,Day,Hour,Minute,Value (Times are PST for temperature in C)
2014,03,06,00,00,9.30
2014,03,06,00,01,9.30
2014,03,06,00,02,9.30
2014,03,06,00,03,9.30
2014,03,06,00,04,9.30
2014,03,06,00,05,9.30
2014,03,06,00,06,9.30
2014,03,06,00,07,9.20
2014,03,06,00,08,9.20
2014,03,06,00,09,9.20
2014,03,06,00,10,9.20
2014,03,06,00,11,9.20
2014,03,06,00,12,9.20
2014,03,06,00,13,9.20
2014,03,06,00,14,9.20
2014,03,06,00,15,9.20
2014,03,06,00,16,9.20
2014,03,06,00,17,9.20
2014,03,06,00,18,9.20
2014,03,06,00,19,9.20
2014,03,06,00,20,9.20
2014,03,06,00,21,9.20
2014,03,06,00,22,9.20
2014,03,06,00,23,9.20
2014,03,06,00,24,9.20
2014,03,06,00,25,9.20
2014,03,06,00,26,9.20
2014,03,06,00,27,9.20
2014,03,06,00,28,9.20
2014,03,06,00,29,9.20
2014,03,06,00,30,9.20
2014,03,06,00,31,9.20
2014,03,06,00,32,9.20
2014,03,06,00,33,9.20
2014,03,06,00,34,9.20
2014,03,06,00,35,9.20
2014,03,06,00,36,9.20
2014,03,06,00,37,9.20
2014,03,06,00,38,9.20
2014,03,06,00,39,9.20
2014,03,06,00,40,9.20
2014,03,06,00,41,9.20
2014,03,06,00,42,9.20
2014,03,06,00,43,9.20
2014,03,06,00,44,9.20
2014,03,06,00,45,9.20
2014,03,06,00,46,9.20
2014,03,06,00,47,9.20
2014,03,06,00,48,9.20
2014,03,06,00,49,9.20
2014,03,06,00,50,9.30
2014,03,06,00,51,9.30
2014,03,06,00,52,9.30
2014,03,06,00,53,9.30
2014,03,06,00,54,9.30
2014,03,06,00,55,9.30
2014,03,06,00,56,9.30
2014,03,06,00,57,9.30
2014,03,06,00,58,9.30
2014,03,06,00,59,9.30
2014,03,06,01,00,9.30
2014,03,06,01,01,9.30
2014,03,06,01,02,9.30
2014,03,06,01,03,9.30
2014,03,06,01,04,9.30
2014,03,06,01,05,9.30
2014,03,06,01,06,9.30
2014,03,06,01,07,9.30
2014,03,06,01,08,9.30
2014,03,06,01,09,9.30
2014,03,06,01,10,9.30
2014,03,06,01,11,9.30
2014,03,06,01,12,9.30
2014,03,06,01,13,9.30
2014,03,06,01,14,9.30
2014,03,06,01,15,9.30
2014,03,06,01,16,9.30
2014,03,06,01,17,9.30
2014,03,06,01,18,9.30
2014,03,06,01,19,9.30
2014,03,06,01,20,9.30
2014,03,06,01,21,9.30
2014,03,06,01,22,9.30
2014,03,06,01,23,9.30
2014,03,06,01,24,9.30
2014,03,06,01,25,9.30
2014,03,06,01,26,9.30
2014,03,06,01,27,9.30
2014,03,06,01,28,9.30
2014,03,06,01,29,9.30
2014,03,06,01,30,9.30
2014,03,06,01,31,9.20
2014,03,06,01,32,9.20
2014,03,06,01,33,9.20
2014,03,06,01,34,9.20
2014,03,06,01,35,9.20
2014,03,06,01,36,9.20
2014,03,06,01,37,9.30
2014,03,06,01,38,9.20
2014,03,06,01,39,9.30
2014,03,06,01,40,9.30
2014,03,06,01,41,9.30
2014,03,06,01,42,9.20
2014,03,06,01,43,9.30
2014,03,06,01,44,9.30
2014,03,06,01,45,9.30
2014,03,06,01,46,9.30
2014,03,06,01,47,9.30
2014,03,06,01,48,9.30
2014,03,06,01,49,9.30
2014,03,06,01,50,9.30
2014,03,06,01,51,9.30
2014,03,06,01,52,9.30
2014,03,06,01,53,9.30
2014,03,06,01,54,9.30
2014,03,06,01,55,9.30
2014,03,06,01,56,9.30
2014,03,06,01,57,9.30
2014,03,06,01,58,9.30
2014,03,06,01,59,9.30
2014,03,06,02,00,9.30
2014,03,06,02,01,9.30
2014,03,06,02,02,9.30
2014,03,06,02,03,9.30
2014,03,06,02,04,9.30
2014,03,06,02,05,9.30
2014,03,06,02,06,9.30
2014,03,06,02,07,9.30
2014,03,06,02,08,9.30
2014,03,06,02,09,9.30
2014,03,06,02,10,9.30
2014,03,06,02,11,9.30
2014,03,06,02,12,9.30
2014,03,06,02,13,9.30
2014,03,06,02,14,9.30
2014,03,06,02,15,9.30
2014,03,06,02,16,9.30
2014,03,06,02,17,9.30
2014,03,06,02,18,9.30
2014,03,06,02,19,9.30
2014,03,06,02,20,9.30
2014,03,06,02,21,9.30
2014,03,06,02,22,9.30
2014,03,06,02,23,9.30
2014,03,06,02,24,9.30
2014,03,06,02,25,9.20
2014,03,06,02,26,9.20
2014,03,06,02,27,9.20
2014,03,06,02,28,9.20
2014,03,06,02,29,9.20
2014,03,06,02,30,9.20
2014,03,06,02,31,9.20
2014,03,06,02,32,9.20
2014,03,06,02,33,9.20
2014,03,06,02,34,9.20
2014,03,06,02,35,9.20
2014,03,06,02,36,9.20
2014,03,06,02,37,9.20
2014,03,06,02,38,9.20
2014,03,06,02,39,9.20
2014,03,06,02,40,9.20
2014,03,06,02,41,9.20
2014,03,06,02,42,9.20
2014,03,06,02,43,9.30
2014,03,06,02,44,9.30
2014,03,06,02,45,9.30
2014,03,06,02,46,9.30
2014,03,06,02,47,9.30
2014,03,06,02,48,9.30
2014,03,06,02,49,9.30
2014,03,06,02,50,9.30
2014,03,06,02,51,9.30
2014,03,06,02,52,9.30
2014,03,06,02,53,9.30
2014,03,06,02,54,9.30
2014,03,06,02,55,9.30
2014,03,06,02,56,9.30
2014,03,06,02,57,9.30
2014,03,06,02,58,9.30
2014,03,06,02,59,9.30
2014,03,06,03,00,9.30
2014,03,06,03,01,9.30
2014,03,06,03,02,9.30
2014,03,06,03,03,9.30
2014,03,06,03,04,9.30
2014,03,06,03,05,9.30
2014,03,06,03,06,9.30
2014,03,06,03,07,9.30
2014,03,06,03,08,9.30
2014,03,06,03,09,9.30
2014,03,06,03,10,9.30
2014,03,06,03,11,9.30
2014,03,06,03,12,9.30
2014,03,06,03,13,9.30
2014,03,06,03,14,9.30
2014,03,06,03,15,9.30
2014,03,06,03,16,9.30
2014,03,06,03,17,9.30
2014,03,06,03,18,9.30
2014,03,06,03,19,9.30
2014,03,06,03,20,9.20
2014,03,06,03,21,9.20
2014,03,06,03,22,9.20
2014,03,06,03,23,9.20
2014,03,06,03,24,9.20
2014,03,06,03,25,9.20
2014,03,06,03,26,9.20
2014,03,06,03,27,9.20
2014,03,06,03,28,9.20
2014,03,06,03,29,9.20
2014,03,06,03,30,9.20
2014,03,06,03,31,9.20
2014,03,06,03,32,9.20
2014,03,06,03,33,9.20
2014,03,06,03,34,9.20
2014,03,06,03,35,9.20
2014,03,06,03,36,9.10
2014,03,06,03,37,9.10
2014,03,06,03,38,9.10
2014,03,06,03,39,9.10
2014,03,06,03,40,9.10
2014,03,06,03,41,9.10
2014,03,06,03,42,9.10
2014,03,06,03,43,9.10
2014,03,06,03,44,9.10
2014,03,06,03,45,9.10
2014,03,06,03,46,9.00
2014,03,06,03,47,9.00
2014,03,06,03,48,9.00
2014,03,06,03,49,9.00
2014,03,06,03,50,9.00
2014,03,06,03,51,9.00
2014,03,06,03,52,9.00
2014,03,06,03,53,9.00
2014,03,06,03,54,9.00
2014,03,06,03,55,8.90
2014,03,06,03,56,8.90
2014,03,06,03,57,8.90
2014,03,06,03,58,8.90
2014,03,06,03,59,8.90
2014,03,06,04,00,8.90
2014,03,06,04,01,8.90
2014,03,06,04,02,8.90
2014,03,06,04,03,8.90
2014,03,06,04,04,8.90
2014,03,06,04,05,8.90
2014,03,06,04,06,8.90
2014,03,06,04,07,8.90
2014,03,06,04,08,8.90
2014,03,06,04,09,8.90
2014,03,06,04,10,8.90
2014,03,06,04,11,8.90
2014,03,06,04,12,8.90
2014,03,06,04,13,8.90
2014,03,06,04,14,8.90
2014,03,06,04,15,8.90
2014,03,06,04,16,8.90
2014,03,06,04,17,8.90
2014,03,06,04,18,8.90
2014,03,06,04,19,8.90
2014,03,06,04,20,8.90
2014,03,06,04,21,8.90
2014,03,06,04,22,8.90
2014,03,06,04,23,8.90
2014,03,06,04,24,8.90
2014,03,06,04,25,8.90
2014,03,06,04,26,8.90
2014,03,06,04,27,8.90
2014,03,06,04,28,8.90
2014,03,06,04,29,8.90
2014,03,06,04,30,8.90
2014,03,06,04,31,8.90
2014,03,06,04,32,8.90
2014,03,06,04,33,8.90
2014,03,06,04,34,8.90
2014,03,06,04,35,8.90
2014,03,06,04,36,8.90
2014,03,06,04,37,8.90
2014,03,06,04,38,8.90
2014,03,06,04,39,8.90
2014,03,06,04,40,8.90
2014,03,06,04,41,8.90
2014,03,06,04,42,8.90
2014,03,06,04,43,8.90
2014,03,06,04,44,8.90
2014,03,06,04,45,8.90
2014,03,06,04,46,8.90
2014,03,06,04,47,8.90
2014,03,06,04,48,8.90
2014,03,06,04,49,8.90
2014,03,06,04,50,8.90
2014,03,06,04,51,8.90
2014,03,06,04,52,8.90
2014,03,06,04,53,8.90
2014,03,06,04,54,8.90
2014,03,06,04,55,8.90
2014,03,06,04,56,8.90
2014,03,06,04,57,8.90
2014,03,06,04,58,8.90
2014,03,06,04,59,8.90
2014,03,06,05,00,8.90
2014,03,06,05,01,8.90
2014,03,06,05,02,8.90
2014,03,06,05,03,8.90
2014,03,06,05,04,8.90
2014,03,06,05,05,8.90
2014,03,06,05,06,8.90
2014,03,06,05,07,8.90
2014,03,06,05,08,8.80
2014,03,06,05,09,8.80
2014,03,06,05,10,8.80
2014,03,06,05,11,8.80
2014,03,06,05,12,8.80
2014,03,06,05,13,8.80
2014,03,06,05,14,8.80
2014,03,06,05,15,8.80
2014,03,06,05,16,8.90
2014,03,06,05,17,8.90
2014,03,06,05,18,8.90
2014,03,06,05,19,8.90
2014,03,06,05,20,8.90
2014,03,06,05,21,8.90
2014,03,06,05,22,8.90
2014,03,06,05,23,8.90
2014,03,06,05,24,8.90
2014,03,06,05,25,8.90
2014,03,06,05,26,8.90
2014,03,06,05,27,8.90
2014,03,06,05,28,8.90
2014,03,06,05,29,8.90
2014,03,06,05,30,8.90
2014,03,06,05,31,8.90
2014,03,06,05,32,9.00
2014,03,06,05,33,8.90
2014,03,06,05,34,8.90
2014,03,06,05,35,8.90
2014,03,06,05,36,8.90
2014,03,06,05,37,8.90
2014,03,06,05,38,8.90
2014,03,06,05,39,8.90
2014,03,06,05,40,8.90
2014,03,06,05,41,8.90
2014,03,06,05,42,8.90
2014,03,06,05,43,8.90
2014,03,06,05,44,8.90
2014,03,06,05,45,8.90
2014,03,06,05,46,8.90
2014,03,06,05,47,8.90
2014,03,06,05,48,8.90
2014,03,06,05,49,8.90
2014,03,06,05,50,8.90
2014,03,06,05,51,8.90
2014,03,06,05,52,8.90
2014,03,06,05,53,9.00
2014,03,06,05,54,8.90
2014,03,06,05,55,8.90
2014,03,06,05,56,8.90
2014,03,06,05,57,8.90
2014,03,06,05,58,8.90
2014,03,06,05,59,8.90
2014,03,06,06,00,8.90
2014,03,06,06,01,8.90
2014,03,06,06,02,8.90
2014,03,06,06,03,9.00
2014,03,06,06,04,9.00
2014,03,06,06,05,9.00
2014,03,06,06,06,9.00
2014,03,06,06,07,9.00
2014,03,06,06,08,9.00
2014,03,06,06,09,9.00
2014,03,06,06,10,9.00
2014,03,06,06,11,9.00
2014,03,06,06,12,9.10
2014,03,06,06,13,9.10
2014,03,06,06,14,9.00
2014,03,06,06,15,9.00
2014,03,06,06,16,9.00
2014,03,06,06,17,9.00
2014,03,06,06,18,9.00
2014,03,06,06,19,9.00
2014,03,06,06,20,9.00
2014,03,06,06,21,9.00
2014,03,06,06,22,8.90
2014,03,06,06,23,8.90
2014,03,06,06,24,8.90
2014,03,06,06,25,8.90
2014,03,06,06,26,8.90
2014,03,06,06,27,8.90
2014,03,06,06,28,8.90
2014,03,06,06,29,8.90
2014,03,06,06,30,8.90
2014,03,06,06,31,8.90
2014,03,06,06,32,8.90
2014,03,06,06,33,8.90
2014,03,06,06,34,8.90
2014,03,06,06,35,9.00
2014,03,06,06,36,9.00
2014,03,06,06,37,9.00
2014,03,06,06,38,9.00
2014,03,06,06,39,9.00
2014,03,06,06,40,9.00
2014,03,06,06,41,9.00
2014,03,06,06,42,9.00
2014,03,06,06,43,9.00
2014,03,06,06,44,9.00
2014,03,06,06,45,9.00
2014,03,06,06,46,9.00
2014,03,06,06,47,9.00
2014,03,06,06,48,8.90
2014,03,06,06,49,8.90
2014,03,06,06,50,8.90
2014,03,06,06,51,8.90
2014,03,06,06,52,8.90
2014,03,06,06,53,8.90
2014,03,06,06,54,9.00
2014,03,06,06,55,9.00
2014,03,06,06,56,9.00
2014,03,06,06,57,9.00
2014,03,06,06,58,9.00
2014,03,06,06,59,9.00
2014,03,06,07,00,9.00
2014,03,06,07,01,9.00
2014,03,06,07,02,8.90
2014,03,06,07,03,8.90
2014,03,06,07,04,8.90
2014,03,06,07,05,8.90
2014,03,06,07,06,8.90
2014,03,06,07,07,8.90
2014,03,06,07,08,8.90
2014,03,06,07,09,8.90
2014,03,06,07,10,8.90
2014,03,06,07,11,8.90
2014,03,06,07,12,8.90
2014,03,06,07,13,8.90
2014,03,06,07,14,8.90
2014,03,06,07,15,8.90
2014,03,06,07,16,8.90
2014,03,06,07,17,8.90
2014,03,06,07,18,8.90
2014,03,06,07,19,8.90
2014,03,06,07,20,8.90
2014,03,06,07,21,8.90
2014,03,06,07,22,8.90
2014,03,06,07,23,8.90
2014,03,06,07,24,8.90
2014,03,06,07,25,8.90
2014,03,06,07,26,8.90
2014,03,06,07,27,9.00
2014,03,06,07,28,9.00
2014,03,06,07,29,9.00
2014,03,06,07,30,9.00
2014,03,06,07,31,9.00
2014,03,06,07,32,9.00
2014,03,06,07,33,9.00
2014,03,06,07,34,9.00
2014,03,06,07,35,9.00
2014,03,06,07,36,9.00
2014,03,06,07,37,9.00
2014,03,06,07,38,9.00
2014,03,06,07,39,9.00
2014,03,06,07,40,9.00
2014,03,06,07,41,9.00
2014,03,06,07,42,8.90
2014,03,06,07,43,8.90
2014,03,06,07,44,9.00
2014,03,06,07,45,8.90
2014,03,06,07,46,8.90
2014,03,06,07,47,9.00
2014,03,06,07,48,8.90
2014,03,06,07,49,8.90
2014,03,06,07,50,9.00
2014,03,06,07,51,8.90
2014,03,06,07,52,8.90
2014,03,06,07,53,8.90
2014,03,06,07,54,8.90
2014,03,06,07,55,8.90
2014,03,06,07,56,8.90
2014,03,06,07,57,8.90
2014,03,06,07,58,8.90
2014,03,06,07,59,8.90
2014,03,06,08,00,8.90
2014,03,06,08,01,8.90
2014,03,06,08,02,8.90
2014,03,06,08,03,8.80
2014,03,06,08,04,8.80
2014,03,06,08,05,8.70
2014,03,06,08,06,8.70
2014,03,06,08,07,8.60
2014,03,06,08,08,8.60
2014,03,06,08,09,8.60
2014,03,06,08,10,8.60
2014,03,06,08,11,8.60
2014,03,06,08,12,8.60
2014,03,06,08,13,8.50
2014,03,06,08,14,8.50
2014,03,06,08,15,8.50
2014,03,06,08,16,8.50
2014,03,06,08,17,8.50
2014,03,06,08,18,8.50
2014,03,06,08,19,8.40
2014,03,06,08,20,8.40
2014,03,06,08,21,8.40
2014,03,06,08,22,8.40
2014,03,06,08,23,8.40
2014,03,06,08,24,8.40
2014,03,06,08,25,8.40
2014,03,06,08,26,8.40
2014,03,06,08,27,8.40
2014,03,06,08,28,8.40
2014,03,06,08,29,8.40
2014,03,06,08,30,8.40
2014,03,06,08,31,8.40
2014,03,06,08,32,8.40
2014,03,06,08,33,8.40
2014,03,06,08,34,8.40
2014,03,06,08,35,8.40
2014,03,06,08,36,8.40
2014,03,06,08,37,8.40
2014,03,06,08,38,8.40
2014,03,06,08,39,8.40
2014,03,06,08,40,8.40
2014,03,06,08,41,8.40
2014,03,06,08,42,8.40
2014,03,06,08,43,8.40
2014,03,06,08,44,8.40
2014,03,06,08,45,8.40
2014,03,06,08,46,8.40
2014,03,06,08,47,8.40
2014,03,06,08,48,8.40
2014,03,06,08,49,8.40
2014,03,06,08,50,8.40
2014,03,06,08,51,8.40
2014,03,06,08,52,8.40
2014,03,06,08,53,8.40
2014,03,06,08,54,8.40
2014,03,06,08,55,8.40
2014,03,06,08,56,8.40
2014,03,06,08,57,8.40
2014,03,06,08,58,8.40
2014,03,06,08,59,8.40
2014,03,06,09,00,8.40
2014,03,06,09,01,8.40
2014,03,06,09,02,8.40
2014,03,06,09,03,8.30
2014,03,06,09,04,8.30
2014,03,06,09,05,8.30
2014,03,06,09,06,8.30
2014,03,06,09,07,8.30
2014,03,06,09,08,8.30
2014,03,06,09,09,8.30
2014,03,06,09,10,8.30
2014,03,06,09,11,8.30
2014,03,06,09,12,8.20
2014,03,06,09,13,8.20
2014,03,06,09,14,8.20
2014,03,06,09,15,8.20
2014,03,06,09,16,8.20
2014,03,06,09,17,8.20
2014,03,06,09,18,8.20
2014,03,06,09,19,8.20
2014,03,06,09,20,8.20
2014,03,06,09,21,8.20
2014,03,06,09,22,8.30
2014,03,06,09,23,8.30
2014,03,06,09,24,8.30
2014,03,06,09,25,8.20
2014,03,06,09,26,8.20
2014,03,06,09,27,8.20
2014,03,06,09,28,8.20
2014,03,06,09,29,8.20
2014,03,06,09,30,8.30
2014,03,06,09,31,8.30
2014,03,06,09,32,8.30
2014,03,06,09,33,8.30
2014,03,06,09,34,8.30
2014,03,06,09,35,8.30
2014,03,06,09,36,8.30
2014,03,06,09,37,8.30
2014,03,06,09,38,8.30
2014,03,06,09,39,8.30
2014,03,06,09,40,8.30
2014,03,06,09,41,8.30
2014,03,06,09,42,8.30
2014,03,06,09,43,8.30
2014,03,06,09,44,8.30
2014,03,06,09,45,8.30
2014,03,06,09,46,8.30
2014,03,06,09,47,8.30
2014,03,06,09,48,8.20
2014,03,06,09,49,8.30
2014,03,06,09,50,8.20
2014,03,06,09,51,8.20
2014,03,06,09,52,8.20
2014,03,06,09,53,8.20
2014,03,06,09,54,8.20
2014,03,06,09,55,8.20
2014,03,06,09,56,8.20
2014,03,06,09,57,8.20
2014,03,06,09,58,8.20
2014,03,06,09,59,8.20
2014,03,06,10,00,8.20
2014,03,06,10,01,8.20
2014,03,06,10,02,8.20
2014,03,06,10,03,8.20
2014,03,06,10,04,8.20
2014,03,06,10,05,8.20
2014,03,06,10,06,8.20
2014,03,06,10,07,8.20
2014,03,06,10,08,8.20
2014,03,06,10,09,8.20
2014,03,06,10,10,8.20
2014,03,06,10,11,8.20
2014,03,06,10,12,8.20
2014,03,06,10,13,8.20
2014,03,06,10,14,8.20
2014,03,06,10,15,8.20
2014,03,06,10,16,8.20
2014,03,06,10,17,8.20
2014,03,06,10,18,8.20
2014,03,06,10,19,8.20
2014,03,06,10,20,8.20
2014,03,06,10,21,8.20
2014,03,06,10,22,8.20
2014,03,06,10,23,8.10
2014,03,06,10,24,8.10
2014,03,06,10,25,8.10
2014,03,06,10,26,8.10
2014,03,06,10,27,8.10
2014,03,06,10,28,8.10
2014,03,06,10,29,8.10
2014,03,06,10,30,8.10
2014,03,06,10,31,8.10
2014,03,06,10,32,8.10
2014,03,06,10,33,8.10
2014,03,06,10,34,8.10
2014,03,06,10,35,8.10
2014,03,06,10,36,8.10
2014,03,06,10,37,8.10
2014,03,06,10,38,8.10
2014,03,06,10,39,8.10
2014,03,06,10,40,8.10
2014,03,06,10,41,8.10
2014,03,06,10,42,8.10
2014,03,06,10,43,8.10
2014,03,06,10,44,8.10
2014,03,06,10,45,8.10
2014,03,06,10,46,8.10
2014,03,06,10,47,8.10
2014,03,06,10,48,8.10
2014,03,06,10,49,8.10
2014,03,06,10,50,8.10
2014,03,06,10,51,8.10
2014,03,06,10,52,8.10
2014,03,06,10,53,8.10
2014,03,06,10,54,8.10
2014,03,06,10,55,8.10
2014,03,06,10,56,8.10
2014,03,06,10,57,8.10
2014,03,06,10,58,8.10
2014,03,06,10,59,8.10
2014,03,06,11,00,8.10
2014,03,06,11,01,8.10
2014,03,06,11,02,8.00
2014,03,06,11,03,8.00
2014,03,06,11,04,8.00
2014,03,06,11,05,8.00
2014,03,06,11,06,8.00
2014,03,06,11,07,8.00
2014,03,06,11,08,8.00
2014,03,06,11,09,8.00
2014,03,06,11,10,8.00
2014,03,06,11,11,8.00
2014,03,06,11,12,8.00
2014,03,06,11,13,8.00
2014,03,06,11,14,8.00
2014,03,06,11,15,8.00
2014,03,06,11,16,8.00
2014,03,06,11,17,8.00
2014,03,06,11,18,8.00
2014,03,06,11,19,8.00
2014,03,06,11,20,8.00
2014,03,06,11,21,8.00
2014,03,06,11,22,8.00
2014,03,06,11,23,8.00
2014,03,06,11,24,8.10
2014,03,06,11,25,8.00
2014,03,06,11,26,8.00
2014,03,06,11,27,8.00
2014,03,06,11,28,8.00
2014,03,06,11,29,8.00
2014,03,06,11,30,8.00
2014,03,06,11,31,8.00
2014,03,06,11,32,8.00
2014,03,06,11,33,8.00
2014,03,06,11,34,8.00
2014,03,06,11,35,7.90
2014,03,06,11,36,7.90
2014,03,06,11,37,7.90
2014,03,06,11,38,7.90
2014,03,06,11,39,7.90
2014,03,06,11,40,7.90
2014,03,06,11,41,7.90
2014,03,06,11,42,7.90
2014,03,06,11,43,7.90
2014,03,06,11,44,7.90
2014,03,06,11,45,7.90
2014,03,06,11,46,7.90
2014,03,06,11,47,7.90
2014,03,06,11,48,7.90
2014,03,06,11,49,7.90
2014,03,06,11,50,7.90
2014,03,06,11,51,7.90
2014,03,06,11,52,8.00
2014,03,06,11,53,8.00
2014,03,06,11,54,7.90
2014,03,06,11,55,8.00
2014,03,06,11,56,8.00
2014,03,06,11,57,7.90
2014,03,06,11,58,8.00
2014,03,06,11,59,7.90
2014,03,06,12,00,7.90
2014,03,06,12,01,7.90
2014,03,06,12,02,7.90
2014,03,06,12,03,7.90
2014,03,06,12,04,7.90
2014,03,06,12,05,7.90
2014,03,06,12,06,7.90
2014,03,06,12,07,7.90
2014,03,06,12,08,7.90
2014,03,06,12,09,7.90
2014,03,06,12,10,7.90
2014,03,06,12,11,7.90
2014,03,06,12,12,7.90
2014,03,06,12,13,7.90
2014,03,06,12,14,7.90
2014,03,06,12,15,7.90
2014,03,06,12,16,7.90
2014,03,06,12,17,7.90
2014,03,06,12,18,7.90
2014,03,06,12,19,7.90
2014,03,06,12,20,7.90
2014,03,06,12,21,7.90
2014,03,06,12,22,7.90
2014,03,06,12,23,7.90
2014,03,06,12,24,7.90
2014,03,06,12,25,7.80
2014,03,06,12,26,7.80
2014,03,06,12,27,7.80
2014,03,06,12,28,7.80
2014,03,06,12,29,7.80
2014,03,06,12,30,7.80
2014,03,06,12,31,7.80
2014,03,06,12,32,7.80
2014,03,06,12,33,7.80
2014,03,06,12,34,7.80
2014,03,06,12,35,7.80
2014,03,06,12,36,7.80
2014,03,06,12,37,7.80
2014,03,06,12,38,7.80
2014,03,06,12,39,7.80
2014,03,06,12,40,7.80
2014,03,06,12,41,7.80
2014,03,06,12,42,7.80
2014,03,06,12,43,7.80
2014,03,06,12,44,7.70
2014,03,06,12,45,7.70
2014,03,06,12,46,7.70
2014,03,06,12,47,7.70
2014,03,06,12,48,7.70
2014,03,06,12,49,7.70
2014,03,06,12,50,7.70
2014,03,06,12,51,7.70
2014,03,06,12,52,7.70
2014,03,06,12,53,7.70
2014,03,06,12,54,7.70
2014,03,06,12,55,7.70
2014,03,06,12,56,7.70
2014,03,06,12,57,7.70
2014,03,06,12,58,7.70
2014,03,06,12,59,7.70
2014,03,06,13,00,7.70
2014,03,06,13,01,7.70
2014,03,06,13,02,7.70
2014,03,06,13,03,7.70
2014,03,06,13,04,7.70
2014,03,06,13,05,7.70
2014,03,06,13,06,7.70
2014,03,06,13,07,7.70
2014,03,06,13,08,7.70
2014,03,06,13,09,7.70
2014,03,06,13,10,7.70
2014,03,06,13,11,7.70
2014,03,06,13,12,7.70
2014,03,06,13,13,7.70
2014,03,06,13,14,7.70
2014,03,06,13,15,7.70
2014,03,06,13,16,7.70
2014,03,06,13,17,7.70
2014,03,06,13,18,7.70
2014,03,06,13,19,7.70
2014,03,06,13,20,7.70
2014,03,06,13,21,7.70
2014,03,06,13,22,7.70
2014,03,06,13,23,7.70
2014,03,06,13,24,7.70
2014,03,06,13,25,7.70
2014,03,06,13,26,7.70
2014,03,06,13,27,7.70
2014,03,06,13,28,7.70
2014,03,06,13,29,7.70
2014,03,06,13,30,7.60
2014,03,06,13,31,7.60
2014,03,06,13,32,7.60
2014,03,06,13,33,7.60
2014,03,06,13,34,7.60
2014,03,06,13,35,7.60
2014,03,06,13,36,7.60
2014,03,06,13,37,7.60
2014,03,06,13,38,7.60
2014,03,06,13,39,7.60
2014,03,06,13,40,7.60
2014,03,06,13,41,7.60
2014,03,06,13,42,7.60
2014,03,06,13,43,7.60
2014,03,06,13,44,7.60
2014,03,06,13,45,7.60
2014,03,06,13,46,7.60
2014,03,06,13,47,7.60
2014,03,06,13,48,7.50
2014,03,06,13,49,7.50
2014,03,06,13,50,7.50
2014,03,06,13,51,7.50
2014,03,06,13,52,7.50
2014,03,06,13,53,7.50
2014,03,06,13,54,7.50
2014,03,06,13,55,7.50
2014,03,06,13,56,7.50
2014,03,06,13,57,7.50
2014,03,06,13,58,7.50
2014,03,06,13,59,7.50
2014,03,06,14,00,7.50
2014,03,06,14,01,7.50
2014,03,06,14,02,7.50
2014,03,06,14,03,7.50
2014,03,06,14,04,7.50
2014,03,06,14,05,7.50
2014,03,06,14,06,7.50
2014,03,06,14,07,7.50
2014,03,06,14,08,7.60
2014,03,06,14,09,7.60
2014,03,06,14,10,7.60
2014,03,06,14,11,7.60
2014,03,06,14,12,7.60
2014,03,06,14,13,7.60
2014,03,06,14,14,7.60
2014,03,06,14,15,7.60
2014,03,06,14,16,7.60
2014,03,06,14,17,7.60
2014,03,06,14,18,7.60
2014,03,06,14,19,7.60
2014,03,06,14,20,7.60
2014,03,06,14,21,7.60
2014,03,06,14,22,7.60
2014,03,06,14,23,7.60
2014,03,06,14,24,7.60
2014,03,06,14,25,7.60
2014,03,06,14,26,7.60
2014,03,06,14,27,7.60
2014,03,06,14,28,7.60
2014,03,06,14,29,7.60
2014,03,06,14,30,7.60
2014,03,06,14,31,7.60
2014,03,06,14,32,7.60
2014,03,06,14,33,7.60
2014,03,06,14,34,7.60
2014,03,06,14,35,7.60
2014,03,06,14,36,7.60
2014,03,06,14,37,7.60
2014,03,06,14,38,7.60
2014,03,06,14,39,7.60
2014,03,06,14,40,7.60
2014,03,06,14,41,7.60
2014,03,06,14,42,7.60
2014,03,06,14,43,7.60
2014,03,06,14,44,7.60
2014,03,06,14,45,7.60
2014,03,06,14,46,7.60
2014,03,06,14,47,7.60
2014,03,06,14,48,7.60
2014,03,06,14,49,7.60
2014,03,06,14,50,7.60
2014,03,06,14,51,7.60
2014,03,06,14,52,7.60
2014,03,06,14,53,7.60
2014,03,06,14,54,7.50
2014,03,06,14,55,7.50
2014,03,06,14,56,7.60
2014,03,06,14,57,7.60
2014,03,06,14,58,7.60
2014,03,06,14,59,7.60
2014,03,06,15,00,7.60
2014,03,06,15,01,7.60
2014,03,06,15,02,7.60
2014,03,06,15,03,7.60
2014,03,06,15,04,7.60
2014,03,06,15,05,7.60
2014,03,06,15,06,7.60
2014,03,06,15,07,7.60
2014,03,06,15,08,7.60
2014,03,06,15,09,7.60
2014,03,06,15,10,7.60
2014,03,06,15,11,7.60
2014,03,06,15,12,7.60
2014,03,06,15,13,7.60
2014,03,06,15,14,7.60
2014,03,06,15,15,7.60
2014,03,06,15,16,7.60
2014,03,06,15,17,7.60
2014,03,06,15,18,7.60
2014,03,06,15,19,7.60
2014,03,06,15,20,7.60
2014,03,06,15,21,7.60
2014,03,06,15,22,7.60
2014,03,06,15,23,7.60
2014,03,06,15,24,7.60
2014,03,06,15,25,7.70
2014,03,06,15,26,7.70
2014,03,06,15,27,7.70
2014,03,06,15,28,7.70
2014,03,06,15,29,7.70
2014,03,06,15,30,7.70
2014,03,06,15,31,7.70
2014,03,06,15,32,7.70
2014,03,06,15,33,7.70
2014,03,06,15,34,7.70
2014,03,06,15,35,7.70
2014,03,06,15,36,7.70
2014,03,06,15,37,7.70
2014,03,06,15,38,7.70
2014,03,06,15,39,7.70
2014,03,06,15,40,7.70
2014,03,06,15,41,7.70
2014,03,06,15,42,7.70
2014,03,06,15,43,7.70
2014,03,06,15,44,7.70
2014,03,06,15,45,7.70
2014,03,06,15,46,7.70
2014,03,06,15,47,7.70
2014,03,06,15,48,7.70
2014,03,06,15,49,7.70
2014,03,06,15,50,7.70
2014,03,06,15,51,7.70
2014,03,06,15,52,7.70
2014,03,06,15,53,7.70
2014,03,06,15,54,7.70
2014,03,06,15,55,7.70
2014,03,06,15,56,7.70
2014,03,06,15,57,7.80
2014,03,06,15,58,7.80
2014,03,06,15,59,7.80
2014,03,06,16,00,7.80
2014,03,06,16,01,7.80
2014,03,06,16,02,7.80
2014,03,06,16,03,7.80
2014,03,06,16,04,7.80
2014,03,06,16,05,7.80
2014,03,06,16,06,7.80
2014,03,06,16,07,7.80
2014,03,06,16,08,7.80
2014,03,06,16,09,7.80
2014,03,06,16,10,7.80
2014,03,06,16,11,7.80
2014,03,06,16,12,7.80
2014,03,06,16,13,7.80
2014,03,06,16,14,7.90
2014,03,06,16,15,7.90
2014,03,06,16,16,7.90
2014,03,06,16,17,7.90
2014,03,06,16,18,7.90
2014,03,06,16,19,7.90
2014,03,06,16,20,7.90
2014,03,06,16,21,7.90
2014,03,06,16,22,7.90
2014,03,06,16,23,7.90
2014,03,06,16,24,7.90
2014,03,06,16,25,7.90
2014,03,06,16,26,7.90
2014,03,06,16,27,7.90
2014,03,06,16,28,8.00
2014,03,06,16,29,8.00
2014,03,06,16,30,8.00
2014,03,06,16,31,8.00
2014,03,06,16,32,8.00
2014,03,06,16,33,8.00
2014,03,06,16,34,8.00
2014,03,06,16,35,8.00
2014,03,06,16,36,8.00
2014,03,06,16,37,8.10
2014,03,06,16,38,8.10
2014,03,06,16,39,8.10
2014,03,06,16,40,8.10
2014,03,06,16,41,8.10
2014,03,06,16,42,8.10
2014,03,06,16,43,8.10
2014,03,06,16,44,8.10
2014,03,06,16,45,8.20
2014,03,06,16,46,8.20
2014,03,06,16,47,8.20
2014,03,06,16,48,8.20
2014,03,06,16,49,8.20
2014,03,06,16,50,8.20
2014,03,06,16,51,8.20
2014,03,06,16,52,8.10
2014,03,06,16,53,8.10
2014,03,06,16,54,8.10
2014,03,06,16,55,8.10
2014,03,06,16,56,8.10
2014,03,06,16,57,8.10
2014,03,06,16,58,8.10
2014,03,06,16,59,8.10
2014,03,06,17,00,8.10
2014,03,06,17,01,8.10
2014,03,06,17,02,8.10
2014,03,06,17,03,8.10
2014,03,06,17,04,8.10
2014,03,06,17,05,8.10
2014,03,06,17,06,8.10
2014,03,06,17,07,8.10
2014,03,06,17,08,8.10
2014,03,06,17,09,8.10
2014,03,06,17,10,8.10
2014,03,06,17,11,8.10
2014,03,06,17,12,8.00
2014,03,06,17,13,8.00
2014,03,06,17,14,8.00
2014,03,06,17,15,8.00
2014,03,06,17,16,8.00
2014,03,06,17,17,7.90
2014,03,06,17,18,7.90
2014,03,06,17,19,7.90
2014,03,06,17,20,7.90
2014,03,06,17,21,7.90
2014,03,06,17,22,7.90
2014,03,06,17,23,7.90
2014,03,06,17,24,7.90
2014,03,06,17,25,7.90
2014,03,06,17,26,7.90
2014,03,06,17,27,7.90
2014,03,06,17,28,7.90
2014,03,06,17,29,7.90
2014,03,06,17,30,7.90
2014,03,06,17,31,7.90
2014,03,06,17,32,7.90
2014,03,06,17,33,7.90
2014,03,06,17,34,7.90
2014,03,06,17,35,7.90
2014,03,06,17,36,7.90
2014,03,06,17,37,7.90
2014,03,06,17,38,7.90
2014,03,06,17,39,7.90
2014,03,06,17,40,7.80
2014,03,06,17,41,7.80
2014,03,06,17,42,7.80
2014,03,06,17,43,7.80
2014,03,06,17,44,7.80
2014,03,06,17,45,7.80
2014,03,06,17,46,7.80
2014,03,06,17,47,7.80
2014,03,06,17,48,7.80
2014,03,06,17,49,7.70
2014,03,06,17,50,7.70
2014,03,06,17,51,7.70
2014,03,06,17,52,7.70
2014,03,06,17,53,7.70
2014,03,06,17,54,7.70
2014,03,06,17,55,7.70
2014,03,06,17,56,7.70
2014,03,06,17,57,7.70
2014,03,06,17,58,7.70
2014,03,06,17,59,7.70
2014,03,06,18,00,7.70
2014,03,06,18,01,7.70
2014,03,06,18,02,7.70
2014,03,06,18,03,7.70
2014,03,06,18,04,7.70
2014,03,06,18,05,7.70
2014,03,06,18,06,7.70